Location: Bacharowice
(49.9333°N, 19.5833°E)
Time: 01:35:17
(UTC+00:00)

USA 305 - Pass Details

Date: 20 September 2021
Orbit: 547 x 588 km, 54.0° (Epoch: 03 October)

Event Time Altitude Azimuth Distance (km) Brightness Sun altitude
Rises 20:27:02 0° 294° (WNW) 2,761 7.2 -32.4°
Reaches altitude 10° 20:29:16 10° 295° (WNW) 1,870 6.2 -32.6°
Enters shadow 20:30:35 20° 296° (WNW) 1,360 5.3 -32.8°
